[[{"header":{"parameterUnit":"m.s-1","parameterCategory":1,"la1":30.2991,"la2":30.254,"lo1":-89.0895,"lo2":-89.0444,"dy":0.0017,"dx":0.0017,"nx":28,"ny":28,"refTime":"2025-04-04T09:00:00:Z","depth":0,"parameterNumber":2,"parameterNumberName":"U-component_of_WINDS"},"data":[0,0,0,0,0,0,0,0,0,0,0,0,0,0,0,0,0,0,0,0,0,0,0,0,0,0,0,0,0,0,0,0,0,0,0,0,0,0,0,0,0,0,0,0,0,0,0,0,0,0,0,0,0,0,0,0,0,0,-5.5342,-5.5344,0,-5.5524,-5.5526,-5.5528,-5.5563,-5.5561,-5.556,-5.5558,-5.5741,-5.5747,-5.5753,0,0,0,0,0,0,0,0,0,0,0,0,0,-5.5022,-5.5027,-5.5342,-5.5344,-5.5346,-5.5524,-5.5526,-5.5529,-5.5563,-5.5561,-5.5559,-5.5558,-5.5739,-5.5746,-5.5754,0,0,0,0,0,0,0,0,0,0,0,0,0,-5.5178,-5.5029,-5.5341,-5.5385,-5.5391,-5.5523,-5.5526,-5.5529,-5.5563,-5.5561,-5.5559,-5.5557,-5.5737,-5.5746,-5.5755,-5.5855,0,0,-5.5783,-5.5787,0,0,0,0,0,0,0,0,-5.5169,-5.5189,-5.5376,-5.5382,-5.5389,-5.5519,-5.548,-5.5638,-5.5564,-5.5498,-5.5558,-5.5556,-5.5669,-5.5683,-5.5722,-5.5864,-5.5872,-5.5784,-5.579,-5.5794,-5.5796,0,0,0,0,0,0,0,-5.5158,-5.5182,-5.5414,-5.5379,-5.5387,-5.5395,-5.5414,-5.551,-5.5593,-5.5503,-5.5506,-5.5528,-5.5672,-5.5713,-5.5727,-5.5875,-5.5784,-5.5792,-5.5798,-5.5802,-5.6108,-5.611,0,0,0,0,0,0,-5.514,-5.5172,-5.5408,-5.5419,-5.5271,-5.5402,-5.5424,-5.5479,-5.5592,-5.5607,-5.5529,-5.5528,-5.5698,-5.5716,-5.5733,-5.5857,-5.5794,-5.5802,-5.5808,-5.6105,-5.6108,-5.6111,0,0,0,0,0,0,-5.5133,-5.516,-5.5401,-5.5297,-5.5328,-5.541,-5.5471,-5.5484,-5.5525,-5.5612,-5.5626,-5.5556,-5.5697,-5.572,-5.5825,-5.5864,-5.5807,-5.5815,-5.6102,-5.6106,-5.611,-5.6106,0,0,0,0,0,0,-5.5123,-5.5158,-5.5197,-5.5298,-5.5333,-5.549,-5.5474,-5.5489,-5.5542,-5.5542,-5.5641,-5.5655,-5.5697,-5.5811,-5.5834,-5.5876,-5.5822,-5.6099,-5.6104,-5.6108,-5.6103,-5.611,-5.6115,0,0,0,0,0,-5.5112,-5.5188,-5.5199,-5.5227,-5.5385,-5.5492,-5.5513,-5.556,-5.5545,-5.5584,-5.564,-5.5652,-5.5857,-5.5821,-5.5848,-5.5893,-5.6097,-5.6102,-5.6108,-5.6101,-5.6108,-5.6115,0,0,0,0,0,0,-5.5089,-5.5202,-5.5215,-5.5327,-5.54,-5.5498,-5.5549,-5.5567,-5.5645,-5.5642,-5.5698,-5.5719,-5.5821,-5.5868,-5.5826,-5.5996,-5.5976,-5.5987,-5.5961,-5.5969,-5.5975,-5.596,-5.583,0,0,0,0,0,-5.5097,-5.5176,-5.5271,-5.536,-5.5396,-5.5467,-5.5515,-5.5546,-5.5623,-5.5654,-5.5717,-5.5791,-5.5872,-5.5923,-5.6003,-5.6112,-5.6133,-5.6156,-5.6162,-5.6166,-5.6174,-5.6234,-5.6245,-5.613,-5.613,-5.613,0,0,-5.5114,-5.5186,-5.5232,-5.5357,-5.5417,-5.5496,-5.5492,-5.5576,-5.5635,-5.5666,-5.5769,-5.5818,-5.5904,-5.6011,-5.6061,-5.6053,-5.6211,-5.6173,-5.6176,-5.6182,-5.6241,-5.6252,-5.6261,-5.6134,-5.6133,-5.6132,0,0,-5.5185,-5.5249,-5.5329,-5.539,-5.5482,-5.5529,-5.5548,-5.5644,-5.5678,-5.5783,-5.5808,-5.5879,-5.6017,-5.6077,-5.6126,-5.6222,-5.6235,-5.6246,-5.6275,-5.6333,-5.6342,-5.635,-5.6383,-5.6394,-5.6254,-5.6255,-5.6255,0,-5.5194,-5.5316,-5.5368,-5.5452,-5.5505,-5.5539,-5.5621,-5.5677,-5.5789,-5.5825,-5.5815,-5.599,-5.605,-5.6171,-5.6195,-5.6234,-5.6256,-5.6233,-5.6337,-5.6346,-5.6354,-5.6385,-5.6398,-5.6255,-5.6255,-5.6255,-5.6255,0,-5.5322,-5.5406,-5.546,-5.5568,-5.5629,-5.5711,-5.5774,-5.5829,-5.5856,-5.5903,-5.6008,-5.6083,-5.6177,-5.6209,-5.6235,-5.6334,-5.6326,-5.6326,-5.6306,-5.6365,-5.6395,-5.6407,-5.6256,-5.6256,-5.6255,-5.6255,0,0,-5.538,-5.5519,-5.5537,-5.5587,-5.5692,-5.5757,-5.5841,-5.5934,-5.5979,-5.6057,-5.6126,-5.6244,-5.6245,-5.63,-5.6334,-5.6385,-5.6454,-5.6379,-5.6382,-5.6388,-5.6566,-5.6562,-5.6576,-5.6465,-5.6468,-5.647,-5.6557,0,-5.5462,-5.5613,-5.5663,-5.5788,-5.5865,-5.5899,-5.5972,-5.6043,-5.6091,-5.6163,-5.6215,-5.6296,-5.6293,-5.6326,-5.6379,-5.6434,-5.649,-5.6429,-5.6529,-5.6532,-5.6503,-5.6592,-5.6589,-5.6668,-5.657,-5.6572,-5.6574,0,-5.5577,-5.5657,-5.5789,-5.5884,-5.5918,-5.5983,-5.6073,-5.6142,-5.6224,-5.6254,-5.6317,-5.6347,-5.6434,-5.6412,-5.6533,-5.649,-5.6535,-5.6569,-5.6573,-5.6581,-5.6554,-5.66,-5.6695,-5.6705,-5.6593,-5.6591,-5.659,0,-5.5603,-5.5744,-5.5842,-5.5883,-5.5997,-5.6041,-5.6091,-5.6171,-5.6224,-5.6303,-5.6338,-5.6425,-5.6473,-5.654,-5.6592,-5.6571,-5.6708,-5.669,-5.6734,-5.6733,-5.6758,-5.6755,-5.6858,-5.6792,-5.6792,-5.6791,-5.6791,0,-5.5688,-5.5766,-5.5855,-5.5914,-5.6004,-5.6061,-5.6148,-5.6199,-5.627,-5.634,-5.6376,-5.644,-5.6507,-5.658,-5.6622,-5.6714,-5.6736,-5.6762,-5.6772,-5.6757,-5.6754,-5.6785,-5.6779,-5.6795,-5.6794,-5.6793,-5.6793,0,-5.5731,-5.5794,-5.5902,-5.6001,-5.6028,-5.609,-5.6174,-5.6233,-5.6283,-5.637,-5.6394,-5.6471,-5.6559,-5.6619,-5.6731,-5.676,-5.6859,-5.6869,-5.6831,-5.6835,-5.6875,-5.687,-5.6999,-5.7019,-5.6941,-5.6942,-5.6942,0,-5.5779,-5.5841,-5.5948,-5.5997,-5.6047,-5.6126,-5.6181,-5.6241,-5.6296,-5.6395,-5.6441,-5.6532,-5.6606,-5.6745,-5.681,-5.6896,-5.6907,-5.6947,-5.692,-5.6904,-5.6905,-5.6899,-5.6905,-5.695,-5.695,-5.6951,-5.6951,0,-5.5857,-5.5885,-5.5963,-5.6053,-5.6118,-5.6191,-5.6264,-5.6302,-5.6374,-5.6435,-5.6525,-5.6584,-5.6699,-5.6788,-5.688,-5.693,-5.6952,-5.696,-5.6974,-5.6958,-5.6933,-5.6945,-5.6839,-5.6956,-5.6955,-5.6955,-5.6955,-5.6954,-5.5903,-5.5959,-5.6043,-5.6129,-5.6191,-5.6258,-5.6318,-5.6376,-5.6453,-5.6552,-5.6583,-5.6676,-5.6757,-5.6884,-5.6935,-5.7009,-5.7006,-5.7027,-5.7032,-5.7035,-5.7034,-5.6924,-5.7026,-5.7026,-5.7026,-5.7026,-5.7026,0,-5.598,-5.6037,-5.6115,-5.6217,-5.6285,-5.6302,-5.6384,-5.6439,-5.6521,-5.6595,-5.6669,-5.6773,-5.6859,-5.6933,-5.7022,-5.7067,-5.7079,-5.7088,-5.7084,-5.7095,-5.7033,-5.701,-5.7077,-5.7077,-5.7077,-5.7077,-5.7077,-5.7077,-5.6029,-5.6124,-5.6163,-5.6289,-5.6345,-5.6437,-5.6483,-5.6545,-5.6604,-5.6719,-5.6791,-5.6839,-5.6913,-5.7009,-5.7088,-5.7108,-5.7138,-5.7144,-5.7165,-5.7105,-5.7099,-5.7093,-5.7073,-5.7151,-5.7151,-5.7221,-5.7221,-5.7222]},{"header":{"parameterUnit":"m.s-1","parameterCategory":1,"la1":30.2991,"la2":30.254,"lo1":-89.0895,"lo2":-89.0444,"dy":0.0017,"dx":0.0017,"nx":28,"ny":28,"refTime":"2025-04-04T09:00:00:Z","depth":0,"parameterNumber":3,"parameterNumberName":"V-component_of_WINDS"},"data":[0,0,0,0,0,0,0,0,0,0,0,0,0,0,0,0,0,0,0,0,0,0,0,0,0,0,0,0,0,0,0,0,0,0,0,0,0,0,0,0,0,0,0,0,0,0,0,0,0,0,0,0,0,0,0,0,0,0,4.8376,4.8377,0,4.8455,4.8455,4.8456,4.8463,4.8462,4.8462,4.8461,4.8537,4.854,4.8543,0,0,0,0,0,0,0,0,0,0,0,0,0,4.8231,4.8234,4.8376,4.8377,4.8378,4.8454,4.8456,4.8457,4.8463,4.8462,4.8461,4.846,4.8536,4.854,4.8543,0,0,0,0,0,0,0,0,0,0,0,0,0,4.83,4.8235,4.8376,4.8391,4.8393,4.8454,4.8456,4.8457,4.8464,4.8462,4.8461,4.846,4.8535,4.8539,4.8543,4.8594,0,0,4.8556,4.8558,0,0,0,0,0,0,0,0,4.8296,4.8306,4.8388,4.839,4.8393,4.8448,4.8432,4.8503,4.8464,4.8437,4.8461,4.8459,4.8508,4.8515,4.8532,4.8598,4.8601,4.8557,4.8559,4.8561,4.8562,0,0,0,0,0,0,0,4.8291,4.8302,4.8407,4.8389,4.8392,4.8393,4.8402,4.8446,4.8478,4.8439,4.844,4.8449,4.8509,4.8528,4.8534,4.8602,4.8557,4.856,4.8563,4.8565,4.8716,4.8717,0,0,0,0,0,0,4.8284,4.8298,4.8405,4.841,4.8341,4.8397,4.8406,4.8431,4.8478,4.8484,4.845,4.8449,4.8521,4.8529,4.8536,4.8601,4.8561,4.8565,4.8567,4.8714,4.8716,4.8718,0,0,0,0,0,0,4.8281,4.8294,4.8402,4.8354,4.8368,4.8401,4.8429,4.8434,4.8452,4.8486,4.8492,4.8463,4.8521,4.8531,4.8581,4.8603,4.8567,4.8571,4.8713,4.8715,4.8717,4.8728,0,0,0,0,0,0,4.8277,4.8293,4.8312,4.8355,4.8371,4.8445,4.843,4.8436,4.846,4.8459,4.85,4.8506,4.852,4.8574,4.8585,4.8608,4.8574,4.8711,4.8714,4.8716,4.8726,4.873,4.8734,0,0,0,0,0,4.8272,4.8311,4.8313,4.8326,4.8396,4.8446,4.8455,4.8472,4.8462,4.8482,4.8504,4.8504,4.8599,4.8579,4.8591,4.8616,4.8709,4.8713,4.8716,4.8724,4.873,4.8734,0,0,0,0,0,0,4.8269,4.8317,4.832,4.8374,4.8406,4.8447,4.8473,4.8477,4.8512,4.851,4.8529,4.8538,4.8588,4.8607,4.8584,4.8669,4.8653,4.8659,4.8655,4.8661,4.8665,4.8659,4.8577,0,0,0,0,0,4.8275,4.8312,4.8352,4.8396,4.8412,4.844,4.8462,4.8473,4.8507,4.852,4.8546,4.8577,4.8615,4.8638,4.8674,4.8729,4.8738,4.8752,4.8756,4.876,4.8765,4.8797,4.8804,4.8729,4.8729,4.8729,0,0,4.8287,4.8318,4.834,4.8396,4.8422,4.8461,4.8451,4.8491,4.852,4.8525,4.8575,4.8595,4.8632,4.8685,4.871,4.8702,4.8787,4.8764,4.8766,4.877,4.8801,4.8808,4.8814,4.8731,4.8731,4.873,0,0,4.8329,4.8356,4.8397,4.8424,4.8464,4.8483,4.8493,4.8534,4.8548,4.8599,4.8604,4.8638,4.8701,4.8728,4.8749,4.8804,4.8806,4.8815,4.8838,4.8869,4.8875,4.888,4.8901,4.8908,4.882,4.882,4.882,0,4.8339,4.8398,4.8417,4.8458,4.8483,4.8492,4.8534,4.8558,4.8608,4.8625,4.8616,4.8698,4.8723,4.8783,4.8797,4.8813,4.8826,4.8811,4.8872,4.8878,4.8883,4.8903,4.8911,4.8821,4.8821,4.8821,4.8821,0,4.8408,4.8449,4.8477,4.8527,4.8555,4.8596,4.8621,4.8647,4.8656,4.8676,4.8728,4.8759,4.8802,4.8817,4.8825,4.8879,4.8874,4.8869,4.8853,4.8891,4.891,4.8918,4.8822,4.8822,4.8822,4.8822,0,0,4.845,4.8512,4.8522,4.8546,4.8592,4.8624,4.8665,4.8709,4.8732,4.8766,4.8802,4.8856,4.8853,4.8878,4.8889,4.8916,4.896,4.8908,4.8909,4.8917,4.9023,4.9027,4.9036,4.8961,4.8963,4.8964,4.902,0,4.8499,4.8575,4.8594,4.8659,4.8697,4.8707,4.8744,4.8776,4.8796,4.8831,4.8852,4.8891,4.8883,4.8898,4.8925,4.8948,4.8981,4.8944,4.8995,4.8996,4.8986,4.9045,4.905,4.9101,4.9028,4.9029,4.903,0,4.8565,4.8603,4.8672,4.8716,4.8733,4.8765,4.8808,4.8842,4.8879,4.8891,4.892,4.8929,4.8973,4.8956,4.9017,4.8992,4.9013,4.9028,4.9031,4.9036,4.9016,4.9054,4.9118,4.9126,4.9042,4.9041,4.904,0,4.8591,4.8659,4.871,4.8729,4.8781,4.8804,4.8826,4.8862,4.8888,4.8925,4.8942,4.8983,4.9006,4.9038,4.9058,4.9043,4.9118,4.9101,4.913,4.913,4.9146,4.9145,4.9215,4.9158,4.9158,4.9158,4.9158,0,4.8643,4.8686,4.8722,4.8753,4.8801,4.8823,4.887,4.8892,4.8924,4.896,4.897,4.9003,4.9028,4.9064,4.908,4.9129,4.9139,4.9151,4.9154,4.915,4.9149,4.9165,4.9163,4.916,4.916,4.9159,4.9159,0,4.868,4.8706,4.8763,4.8807,4.882,4.8853,4.8891,4.8922,4.8943,4.8988,4.9,4.9032,4.9075,4.9099,4.9153,4.9164,4.9219,4.922,4.9207,4.9209,4.9237,4.9235,4.9321,4.9334,4.9268,4.9268,4.9269,0,4.8713,4.8746,4.8795,4.8821,4.8844,4.8884,4.8911,4.8934,4.8962,4.9008,4.9033,4.9078,4.9115,4.9185,4.9212,4.9254,4.9257,4.9285,4.9263,4.9259,4.9259,4.9257,4.9261,4.9288,4.9289,4.929,4.929,0,4.8768,4.878,4.8819,4.8864,4.8897,4.8932,4.8968,4.8988,4.9016,4.9047,4.9093,4.9122,4.9179,4.9223,4.9267,4.929,4.9295,4.9297,4.9306,4.9302,4.9294,4.93,4.9219,4.9295,4.9294,4.9294,4.9294,4.9293,4.8805,4.8836,4.8876,4.892,4.8949,4.8982,4.9014,4.904,4.9079,4.9128,4.9138,4.9187,4.9225,4.9285,4.9309,4.9347,4.9342,4.9354,4.9358,4.9361,4.9363,4.9287,4.9355,4.9355,4.9355,4.9355,4.9355,0,4.8862,4.8889,4.8929,4.898,4.9015,4.9018,4.9057,4.9086,4.913,4.9164,4.9202,4.9255,4.9299,4.933,4.9375,4.94,4.9403,4.9411,4.9409,4.9415,4.9365,4.9353,4.9407,4.9407,4.9407,4.9407,4.9407,4.9407,4.8896,4.8949,4.8966,4.9034,4.906,4.9109,4.9132,4.9163,4.9191,4.9251,4.9288,4.9309,4.9343,4.939,4.943,4.9439,4.9455,4.9462,4.9471,4.9424,4.9418,4.9413,4.9402,4.9466,4.9466,4.9518,4.9519,4.9519]}]]